CW7959 Weather Reports


Display with metric or nautical units.
time (UTC)temp
F
wind
direction
speed
MPH
gust
MPH
rain 1hr
in
rain 24hr
in
rain mn
in
humidity
%
barometer
mb
20260502233905 48 6 2.0 5.0 0.00 0.05 0.00 95 1013.6
20260502233404 48 9 1.0 7.0 0.00 0.05 0.00 95 1013.5
20260502232904 48 13 1.0 9.0 0.00 0.05 0.00 95 1013.5
20260502232404 48 11 1.0 5.0 0.00 0.05 0.00 95 1013.5
20260502231904 48 11 1.0 3.0 0.00 0.05 0.00 95 1013.5
20260502231404 48 11 1.0 6.0 0.01 0.05 0.00 95 1013.5
20260502230905 48 13 5.0 12.0 0.01 0.05 0.00 95 1013.5
20260502230404 48 12 2.0 7.0 0.01 0.05 0.00 95 1013.5
20260502225904 48 15 2.0 8.0 0.02 0.05 0.05 95 1013.5
20260502225404 48 15 0.0 3.0 0.03 0.05 0.05 94 1013.6
20260502224405 48 15 1.0 3.0 0.05 0.05 0.05 94 1013.4
20260502223906 48 15 0.0 5.0 0.05 0.05 0.05 94 1013.5
20260502223405 48 15 1.0 7.0 0.05 0.05 0.05 94 1013.4
20260502222905 48 16 0.0 3.0 0.05 0.05 0.05 94 1013.4
20260502222406 48 16 0.0 2.0 0.05 0.05 0.05 94 1013.4
20260502221906 48 16 0.0 3.0 0.05 0.05 0.05 94 1013.5
20260502221405 48 16 1.0 5.0 0.04 0.04 0.04 94 1013.5
20260502220906 48 16 1.0 6.0 0.04 0.04 0.04 93 1013.5
20260502220405 48 15 1.0 7.0 0.04 0.04 0.04 93 1013.5
20260502215905 48 16 1.0 6.0 0.03 0.03 0.03 92 1013.5
20260502215405 49 16 2.0 12.0 0.02 0.02 0.02 92 1013.5
20260502214906 49 350 5.0 12.0 0.01 0.01 0.01 91 1013.5
20260502214405 49 12 2.0 6.0 0.00 0.00 0.00 90 1013.5
20260502213905 49 13 5.0 9.0 0.00 0.00 0.00 89 1013.6
20260502213404 50 9 5.0 10.0 0.00 0.00 0.00 89 1013.5
20260502212905 50 26 4.0 7.0 0.00 0.00 0.00 89 1013.5
20260502211405 50 14 5.0 12.0 0.00 0.00 0.00 89 1013.5
20260502210904 50 24 6.0 15.0 0.00 0.00 0.00 89 1013.5
20260502210404 50 5 7.0 12.0 0.00 0.00 0.00 89 1013.5
20260502205406 50 10 5.0 12.0 0.00 0.00 0.00 89 1013.5
20260502204405 50 33 2.0 7.0 0.00 0.00 0.00 89 1013.5
20260502203905 50 12 6.0 10.0 0.00 0.00 0.00 89 1013.4
20260502203405 50 25 3.0 7.0 0.00 0.00 0.00 90 1013.4
20260502202904 50 53 3.0 10.0 0.00 0.00 0.00 90 1013.3
20260502202405 50 12 4.0 10.0 0.00 0.00 0.00 90 1013.2
20260502201905 50 13 4.0 8.0 0.00 0.00 0.00 90 1013.0
20260502201405 50 9 3.0 9.0 0.00 0.00 0.00 90 1013.1
20260502200906 50 11 2.0 8.0 0.00 0.00 0.00 90 1013.1
20260502200405 50 10 2.0 6.0 0.00 0.00 0.00 90 1013.0
20260502195906 51 10 3.0 12.0 0.00 0.00 0.00 89 1013.1
20260502195404 51 5 3.0 12.0 0.00 0.00 0.00 89 1013.1
20260502194904 51 6 3.0 12.0 0.00 0.00 0.00 89 1013.0
20260502194407 51 15 5.0 9.0 0.00 0.00 0.00 89 1013.0
20260502193904 51 21 3.0 10.0 0.00 0.00 0.00 90 1012.9
20260502193404 51 29 5.0 14.0 0.00 0.00 0.00 90 1012.9
20260502192404 51 5 3.0 7.0 0.00 0.00 0.00 89 1012.7
20260502191904 51 5 3.0 9.0 0.00 0.00 0.00 89 1012.6
20260502191404 51 5 4.0 12.0 0.00 0.00 0.00 89 1012.6
20260502190905 51 4 5.0 10.0 0.00 0.00 0.00 89 1012.6
20260502190403 51 9 5.0 12.0 0.00 0.00 0.00 89 1012.6
20260502185906 51 13 3.0 9.0 0.00 0.00 0.00 89 1012.6
20260502185405 51 16 3.0 5.0 0.00 0.00 0.00 89 1012.7
20260502184905 52 15 2.0 9.0 0.00 0.00 0.00 89 1012.5
20260502184406 52 354 4.0 10.0 0.00 0.00 0.00 88 1012.6
20260502183904 52 347 4.0 12.0 0.00 0.00 0.00 88 1012.6
20260502183404 52 11 5.0 10.0 0.00 0.00 0.00 89 1012.6
20260502182404 52 5 2.0 3.0 0.00 0.00 0.00 88 1012.7
20260502181906 52 5 5.0 8.0 0.00 0.00 0.00 88 1012.8
20260502181404 53 349 3.0 8.0 0.00 0.00 0.00 89 1012.7
20260502180904 53 326 3.0 6.0 0.00 0.00 0.00 89 1012.8
20260502170404 54 223 0.0 0.0 0.00 0.00 0.00 85 1012.7
20260502163404 54 223 1.0 7.0 0.00 0.00 0.00 85 1012.7
20260502162904 54 223 0.0 3.0 0.00 0.00 0.00 85 1012.8
20260502161904 54 223 3.0 6.0 0.00 0.00 0.00 84 1012.8
20260502161404 54 223 2.0 5.0 0.00 0.00 0.00 85 1012.8
20260502160905 55 223 2.0 5.0 0.00 0.00 0.00 85 1012.8
20260502160404 55 223 4.0 7.0 0.00 0.00 0.00 84 1012.7
20260502151905 55 224 5.0 7.0 0.00 0.00 0.00 84 1013.0
20260502151406 55 224 2.0 8.0 0.00 0.00 0.00 84 1013.0
20260502150905 56 225 4.0 7.0 0.00 0.00 0.00 81 1012.9
20260502150406 57 225 5.0 7.0 0.00 0.00 0.00 81 1012.9
20260502130405 56 217 2.0 5.0 0.00 0.00 0.00 83 1013.4
20260502123404 57 212 4.0 7.0 0.00 0.00 0.00 82 1013.4
20260502122904 57 212 4.0 7.0 0.00 0.00 0.00 83 1013.5
20260502122405 57 212 5.0 7.0 0.00 0.00 0.00 83 1013.5
20260502121904 57 212 5.0 7.0 0.00 0.00 0.00 83 1013.5
20260502121404 57 212 5.0 7.0 0.00 0.00 0.00 83 1013.5
20260502120904 56 212 3.0 6.0 0.00 0.00 0.00 83 1013.5
20260502115904 56 211 1.0 6.0 0.00 0.00 0.00 86 1013.5
20260502115405 56 211 1.0 5.0 0.00 0.00 0.00 85 1013.5
20260502114905 56 211 1.0 3.0 0.00 0.00 0.00 87 1013.7
20260502113905 54 211 1.0 6.0 0.00 0.00 0.00 89 1013.7
20260502112905 54 211 2.0 8.0 0.00 0.00 0.00 89 1013.7
20260502112404 54 211 4.0 8.0 0.00 0.00 0.00 89 1013.8
20260502111404 54 211 5.0 8.0 0.00 0.00 0.00 89 1013.8
20260502110905 54 211 5.0 7.0 0.00 0.00 0.00 90 1013.8
20260502104906 53 211 3.0 7.0 0.00 0.00 0.00 90 1013.8
20260502104404 53 211 4.0 8.0 0.00 0.00 0.00 89 1013.7
20260502103904 53 211 6.0 10.0 0.00 0.00 0.00 87 1013.8
20260502103405 55 211 5.0 10.0 0.00 0.00 0.00 85 1013.7
20260502102905 57 217 2.0 10.0 0.00 0.00 0.00 83 1013.7
20260502102405 58 250 2.0 7.0 0.00 0.00 0.00 82 1013.6
20260502101904 58 232 2.0 7.0 0.00 0.00 0.00 82 1013.6
20260502101404 57 211 1.0 5.0 0.00 0.00 0.00 83 1013.6
20260502100905 58 211 2.0 6.0 0.00 0.00 0.00 81 1013.5
20260502100404 57 211 1.0 6.0 0.00 0.00 0.00 84 1013.5
20260502091404 56 216 4.0 8.0 0.00 0.00 0.00 87 1013.5
20260502090905 54 182 1.0 3.0 0.00 0.00 0.00 88 1013.4
20260502090404 54 182 0.0 3.0 0.00 0.01 0.00 88 1013.5
20260502071405 51 164 1.0 2.0 0.00 0.02 0.00 93 1013.6
20260502070905 51 164 1.0 3.0 0.00 0.02 0.00 93 1013.7
20260502065404 51 164 0.0 0.0 0.00 0.02 0.00 93 1013.6
20260502064905 51 164 0.0 2.0 0.00 0.02 0.00 93 1013.7
20260502064404 51 164 2.0 5.0 0.00 0.02 0.00 93 1013.6
20260502063904 51 164 0.0 3.0 0.00 0.02 0.00 93 1013.7
20260502063405 51 186 1.0 3.0 0.00 0.02 0.00 93 1013.8
20260502061905 51 193 2.0 3.0 0.00 0.02 0.00 93 1013.6
20260502061404 51 193 2.0 3.0 0.00 0.02 0.00 93 1013.5
20260502060905 50 193 0.0 2.0 0.00 0.02 0.00 93 1013.5
20260502060405 50 193 0.0 0.0 0.00 0.02 0.00 93 1013.4
20260502055905 51 193 0.0 0.0 0.00 0.02 0.00 92 1013.4
20260502055406 51 193 0.0 0.0 0.00 0.02 0.00 93 1013.4
20260502054905 51 193 0.0 0.0 0.00 0.02 0.00 93 1013.4
20260502054406 51 193 0.0 0.0 0.00 0.02 0.00 93 1013.4
20260502053905 51 193 0.0 1.0 0.00 0.02 0.00 93 1013.3
20260502053405 51 193 0.0 0.0 0.00 0.02 0.00 93 1013.3
20260502052906 51 193 0.0 0.0 0.00 0.02 0.00 93 1013.4
20260502052405 51 193 0.0 1.0 0.00 0.02 0.00 93 1013.5
20260502051906 51 193 0.0 0.0 0.00 0.02 0.00 92 1013.5
20260502051404 51 193 0.0 0.0 0.00 0.02 0.00 92 1013.5
20260502050404 51 193 0.0 0.0 0.00 0.02 0.00 92 1013.4
20260502045904 51 193 0.0 1.0 0.00 0.02 0.00 92 1013.4
20260502045404 51 193 0.0 2.0 0.00 0.02 0.00 92 1013.4
20260502044406 51 193 0.0 1.0 0.00 0.02 0.00 92 1013.4
20260502043906 51 193 0.0 3.0 0.00 0.02 0.00 92 1013.4
20260502043404 51 193 2.0 3.0 0.00 0.02 0.00 92 1013.4
20260502042404 51 193 0.0 3.0 0.00 0.02 0.00 91 1013.4
20260502041906 51 193 0.0 0.0 0.00 0.02 0.00 92 1013.5
20260502041406 51 193 0.0 1.0 0.00 0.02 0.00 92 1013.3
20260502040405 51 213 0.0 0.0 0.00 0.02 0.00 92 1013.4
20260502035405 52 213 0.0 0.0 0.00 0.02 0.00 91 1013.5
20260502034904 52 213 0.0 0.0 0.00 0.02 0.00 91 1013.5
20260502034405 52 213 0.0 0.0 0.00 0.02 0.00 91 1013.5
20260502033905 52 213 0.0 0.0 0.00 0.02 0.00 91 1013.5
20260502033404 52 213 1.0 3.0 0.00 0.02 0.00 91 1013.5
20260502032904 52 213 0.0 3.0 0.00 0.02 0.00 91 1013.5
20260502032405 52 213 0.0 2.0 0.00 0.02 0.00 91 1013.5
20260502031405 52 213 0.0 2.0 0.00 0.02 0.00 91 1013.6
20260502030905 52 213 0.0 0.0 0.00 0.02 0.00 91 1013.5
20260502025905 52 213 0.0 0.0 0.00 0.02 0.00 91 1013.7
20260502024905 52 213 0.0 0.0 0.00 0.02 0.00 90 1013.7
20260502023905 52 213 1.0 3.0 0.00 0.02 0.00 90 1013.8
20260502022905 52 213 0.0 0.0 0.00 0.02 0.00 89 1013.8
20260502022406 52 213 0.0 0.0 0.00 0.02 0.00 89 1013.9
20260502021905 52 213 0.0 0.0 0.00 0.02 0.00 89 1013.8
20260502021405 52 213 0.0 0.0 0.00 0.02 0.00 89 1013.9
20260502020905 52 213 0.0 3.0 0.00 0.02 0.00 89 1013.9
20260502020405 52 213 0.0 3.0 0.00 0.02 0.00 89 1013.8
20260502015405 52 213 1.0 5.0 0.00 0.02 0.00 89 1014.0
20260502014905 52 213 2.0 5.0 0.00 0.02 0.00 89 1014.1
20260502014405 52 213 0.0 0.0 0.00 0.02 0.00 89 1014.0
20260502013904 52 213 0.0 0.0 0.00 0.02 0.00 89 1014.0
20260502013406 52 213 0.0 0.0 0.00 0.02 0.00 89 1014.2
20260502012905 52 213 0.0 0.0 0.00 0.02 0.00 89 1014.2
20260502012404 52 213 0.0 0.0 0.00 0.02 0.00 89 1014.2
20260502011904 52 213 0.0 0.0 0.00 0.02 0.00 89 1014.3
20260502011406 52 213 0.0 0.0 0.00 0.02 0.00 89 1014.3
20260502010905 52 213 0.0 0.0 0.00 0.02 0.00 89 1014.4
20260502010405 52 213 0.0 0.0 0.00 0.02 0.00 88 1014.6
20260502005906 52 213 0.0 0.0 0.00 0.02 0.00 88 1014.5
20260502005405 52 213 0.0 0.0 0.00 0.02 0.00 88 1014.5
20260502004405 52 213 0.0 0.0 0.00 0.02 0.00 88 1014.5
20260502003905 52 213 0.0 0.0 0.00 0.02 0.00 87 1014.5
20260502003405 52 213 0.0 0.0 0.00 0.02 0.00 87 1014.6
20260502002905 52 213 0.0 0.0 0.00 0.02 0.00 88 1014.6
20260502002405 52 213 0.0 0.0 0.00 0.02 0.00 88 1014.5
20260502001906 52 213 0.0 0.0 0.00 0.02 0.00 88 1014.6
20260502001405 52 213 0.0 0.0 0.00 0.02 0.00 88 1014.6
20260502000905 52 213 0.0 0.0 0.00 0.02 0.00 88 1014.6
20260502000405 52 213 0.0 0.0 0.00 0.02 0.00 88 1014.8
20260501235904 52 213 0.0 0.0 0.00 0.02 0.00 88 1014.7
20260501235405 52 213 0.0 0.0 0.00 0.02 0.00 88 1014.7
20260501234405 52 213 0.0 0.0 0.00 0.02 0.00 87 1014.8